Time,TemperatureF,DewpointF,PressureIn,WindDirection,WindDirectionDegrees,WindSpeedMPH,WindSpeedGustMPH,Humidity,HourlyPrecipIn,Conditions,Clouds,dailyrainin,SolarRadiationWatts/m^2,SoftwareType,DateUTC
2013-10-06 00:00:00,68.0,65.0,-100.00,SE,135,0.0,-999.0,91,-99.99,,,-99.99,0.000000,,2013-10-06 04:00:00,
2013-10-06 00:44:00,68.0,65.0,-100.00,SE,135,0.0,-999.0,91,-99.99,,,-99.99,0.000000,,2013-10-06 04:44:00,
2013-10-06 00:54:00,68.0,65.0,-100.00,SE,135,0.0,-999.0,91,-99.99,,,-99.99,0.000000,,2013-10-06 04:54:00,
2013-10-06 01:00:00,67.0,65.0,-100.00,SE,135,0.0,-999.0,91,0.01,,,-99.99,0.000000,,2013-10-06 05:00:00,
2013-10-06 01:43:00,67.0,65.0,-100.00,SE,135,0.0,-999.0,91,0.01,,,-99.99,0.000000,,2013-10-06 05:43:00,
2013-10-06 01:52:00,67.0,65.0,-100.00,SE,135,0.0,-999.0,91,0.01,,,-99.99,0.000000,,2013-10-06 05:52:00,
2013-10-06 02:00:00,68.0,65.0,-100.00,South,180,0.0,-999.0,91,-99.99,,,-99.99,0.000000,,2013-10-06 06:00:00,
2013-10-06 02:42:00,68.0,65.0,-100.00,South,180,0.0,-999.0,91,-99.99,,,-99.99,0.000000,,2013-10-06 06:42:00,
2013-10-06 02:52:00,68.0,65.0,-100.00,South,180,0.0,-999.0,91,-99.99,,,-99.99,0.000000,,2013-10-06 06:52:00,
2013-10-06 03:00:00,68.0,65.0,-100.00,South,180,0.0,-999.0,90,-99.99,,,-99.99,0.000000,,2013-10-06 07:00:00,
2013-10-06 03:43:00,68.0,65.0,-100.00,South,180,0.0,-999.0,90,-99.99,,,-99.99,0.000000,,2013-10-06 07:43:00,
2013-10-06 03:52:00,68.0,65.0,-100.00,South,180,0.0,-999.0,90,-99.99,,,-99.99,0.000000,,2013-10-06 07:52:00,
2013-10-06 04:00:00,68.0,65.0,-100.00,South,180,1.0,-999.0,89,-99.99,,,-99.99,0.000000,,2013-10-06 08:00:00,
2013-10-06 04:42:00,68.0,65.0,-100.00,South,180,1.0,-999.0,89,-99.99,,,-99.99,0.000000,,2013-10-06 08:42:00,
2013-10-06 04:53:00,68.0,65.0,-100.00,South,180,1.0,-999.0,89,-99.99,,,-99.99,0.000000,,2013-10-06 08:53:00,
2013-10-06 05:00:00,68.0,64.0,-100.00,SSW,202,6.0,-999.0,88,-99.99,,,-99.99,0.000000,,2013-10-06 09:00:00,
2013-10-06 05:43:00,68.0,64.0,-100.00,SSW,202,6.0,-999.0,88,-99.99,,,-99.99,0.000000,,2013-10-06 09:43:00,
2013-10-06 05:53:00,68.0,64.0,-100.00,SSW,202,6.0,-999.0,88,-99.99,,,-99.99,0.000000,,2013-10-06 09:53:00,
2013-10-06 06:00:00,67.0,63.0,-100.00,SSW,202,5.0,-999.0,88,0.01,,,-99.99,0.000000,,2013-10-06 10:00:00,
2013-10-06 06:43:00,67.0,63.0,-100.00,SSW,202,5.0,-999.0,88,0.01,,,-99.99,0.000000,,2013-10-06 10:43:00,
2013-10-06 06:53:00,67.0,63.0,-100.00,SSW,202,5.0,-999.0,88,0.01,,,-99.99,0.000000,,2013-10-06 10:53:00,
2013-10-06 07:00:00,67.0,63.0,-100.00,South,180,6.0,-999.0,89,0.01,,,-99.99,0.000000,,2013-10-06 11:00:00,
2013-10-06 07:42:00,67.0,63.0,-100.00,South,180,6.0,-999.0,89,0.01,,,-99.99,0.000000,,2013-10-06 11:42:00,
2013-10-06 07:52:00,67.0,63.0,-100.00,South,180,6.0,-999.0,89,0.01,,,-99.99,0.000000,,2013-10-06 11:52:00,
2013-10-06 08:00:00,66.0,63.0,-100.00,South,180,6.0,-999.0,89,0.01,,,-99.99,0.000000,,2013-10-06 12:00:00,
2013-10-06 08:42:00,66.0,63.0,-100.00,South,180,6.0,-999.0,89,0.01,,,-99.99,0.000000,,2013-10-06 12:42:00,
2013-10-06 08:52:00,66.0,63.0,-100.00,South,180,6.0,-999.0,89,0.01,,,-99.99,0.000000,,2013-10-06 12:52:00,
2013-10-06 09:00:00,66.0,62.0,-100.00,SSW,202,6.0,-999.0,89,0.02,,,-99.99,10.440000,,2013-10-06 13:00:00,
2013-10-06 09:42:00,66.0,62.0,-100.00,SSW,202,6.0,-999.0,89,0.02,,,-99.99,10.440000,,2013-10-06 13:42:00,
2013-10-06 09:52:00,66.0,62.0,-100.00,SSW,202,6.0,-999.0,89,0.02,,,-99.99,10.440000,,2013-10-06 13:52:00,
2013-10-06 10:00:00,66.0,63.0,-100.00,South,180,4.0,-999.0,90,0.01,,,-99.99,87.000000,,2013-10-06 14:00:00,
2013-10-06 10:42:00,66.0,63.0,-100.00,South,180,4.0,-999.0,90,0.01,,,-99.99,87.000000,,2013-10-06 14:42:00,
2013-10-06 10:52:00,66.0,63.0,-100.00,South,180,4.0,-999.0,90,0.01,,,-99.99,87.000000,,2013-10-06 14:52:00,
2013-10-06 11:00:00,67.0,63.0,-100.00,South,180,5.0,-999.0,88,0.01,,,-99.99,107.879997,,2013-10-06 15:00:00,
2013-10-06 11:44:00,67.0,63.0,-100.00,South,180,5.0,-999.0,88,0.01,,,-99.99,107.879997,,2013-10-06 15:44:00,
2013-10-06 11:54:00,67.0,63.0,-100.00,South,180,5.0,-999.0,88,0.01,,,-99.99,107.879997,,2013-10-06 15:54:00,
2013-10-06 12:00:00,67.0,63.0,-100.00,South,180,6.0,-999.0,87,0.01,,,-99.99,124.120003,,2013-10-06 16:00:00,
2013-10-06 12:43:00,67.0,63.0,-100.00,South,180,6.0,-999.0,87,0.01,,,-99.99,124.120003,,2013-10-06 16:43:00,
2013-10-06 12:53:00,67.0,63.0,-100.00,South,180,6.0,-999.0,87,0.01,,,-99.99,124.120003,,2013-10-06 16:53:00,
2013-10-06 13:00:00,67.0,63.0,-100.00,SSW,202,7.0,-999.0,87,0.02,,,-99.99,190.240005,,2013-10-06 17:00:00,
2013-10-06 13:43:00,67.0,63.0,-100.00,SSW,202,7.0,-999.0,87,0.02,,,-99.99,190.240005,,2013-10-06 17:43:00,
2013-10-06 13:53:00,67.0,63.0,-100.00,SSW,202,7.0,-999.0,87,0.02,,,-99.99,190.240005,,2013-10-06 17:53:00,
2013-10-06 14:00:00,68.0,63.0,-100.00,SSW,202,7.0,-999.0,85,-99.99,,,-99.99,225.039993,,2013-10-06 18:00:00,
2013-10-06 14:43:00,68.0,63.0,-100.00,SSW,202,7.0,-999.0,85,-99.99,,,-99.99,225.039993,,2013-10-06 18:43:00,
2013-10-06 14:52:00,68.0,63.0,-100.00,SSW,202,7.0,-999.0,85,-99.99,,,-99.99,225.039993,,2013-10-06 18:52:00,
2013-10-06 15:00:00,69.0,63.0,-100.00,South,180,7.0,-999.0,81,-99.99,,,-99.99,280.720001,,2013-10-06 19:00:00,
2013-10-06 15:42:00,69.0,63.0,-100.00,South,180,7.0,-999.0,81,-99.99,,,-99.99,280.720001,,2013-10-06 19:42:00,
2013-10-06 15:53:00,69.0,63.0,-100.00,South,180,7.0,-999.0,81,-99.99,,,-99.99,280.720001,,2013-10-06 19:53:00,
2013-10-06 16:00:00,71.0,63.0,-100.00,South,180,7.0,-999.0,76,-99.99,,,-99.99,187.919998,,2013-10-06 20:00:00,
2013-10-06 16:42:00,71.0,63.0,-100.00,South,180,7.0,-999.0,76,-99.99,,,-99.99,187.919998,,2013-10-06 20:42:00,
2013-10-06 16:53:00,71.0,63.0,-100.00,South,180,7.0,-999.0,76,-99.99,,,-99.99,187.919998,,2013-10-06 20:53:00,
2013-10-06 17:00:00,69.0,63.0,-100.00,South,180,6.0,-999.0,81,0.01,,,-99.99,61.480000,,2013-10-06 21:00:00,
2013-10-06 17:45:00,69.0,63.0,-100.00,South,180,6.0,-999.0,81,0.01,,,-99.99,61.480000,,2013-10-06 21:45:00,
2013-10-06 17:55:00,69.0,63.0,-100.00,South,180,6.0,-999.0,81,0.01,,,-99.99,61.480000,,2013-10-06 21:55:00,
2013-10-06 18:00:00,61.0,58.0,-100.00,West,270,8.0,-999.0,87,0.03,,,-99.99,34.799999,,2013-10-06 22:00:00,
2013-10-06 18:43:00,61.0,58.0,-100.00,West,270,8.0,-999.0,87,0.03,,,-99.99,34.799999,,2013-10-06 22:43:00,
2013-10-06 18:54:00,61.0,58.0,-100.00,West,270,8.0,-999.0,87,0.03,,,-99.99,34.799999,,2013-10-06 22:54:00,
2013-10-06 19:00:00,60.0,57.0,-100.00,West,270,4.0,-999.0,89,-99.99,,,-99.99,17.400000,,2013-10-06 23:00:00,
2013-10-06 19:42:00,60.0,57.0,-100.00,West,270,4.0,-999.0,89,-99.99,,,-99.99,17.400000,,2013-10-06 23:42:00,
2013-10-06 19:53:00,60.0,57.0,-100.00,West,270,4.0,-999.0,89,-99.99,,,-99.99,17.400000,,2013-10-06 23:53:00,
2013-10-06 20:00:00,59.0,56.0,-100.00,WSW,247,7.0,-999.0,87,0.01,,,-99.99,1.160000,,2013-10-07 00:00:00,
2013-10-06 20:42:00,59.0,56.0,-100.00,WSW,247,7.0,-999.0,87,0.01,,,-99.99,1.160000,,2013-10-07 00:42:00,
2013-10-06 20:52:00,59.0,56.0,-100.00,WSW,247,7.0,-999.0,87,0.01,,,-99.99,1.160000,,2013-10-07 00:52:00,
2013-10-06 21:00:00,58.0,54.0,-100.00,West,270,6.0,-999.0,87,-99.99,,,-99.99,0.000000,,2013-10-07 01:00:00,
2013-10-06 21:42:00,58.0,54.0,-100.00,West,270,6.0,-999.0,87,-99.99,,,-99.99,0.000000,,2013-10-07 01:42:00,
2013-10-06 21:53:00,58.0,54.0,-100.00,West,270,6.0,-999.0,87,-99.99,,,-99.99,0.000000,,2013-10-07 01:53:00,
2013-10-06 22:00:00,56.0,53.0,-100.00,WSW,247,4.0,-999.0,87,-99.99,,,-99.99,0.000000,,2013-10-07 02:00:00,
2013-10-06 22:43:00,56.0,53.0,-100.00,WSW,247,4.0,-999.0,87,-99.99,,,-99.99,0.000000,,2013-10-07 02:43:00,
2013-10-06 22:53:00,56.0,53.0,-100.00,WSW,247,4.0,-999.0,87,-99.99,,,-99.99,0.000000,,2013-10-07 02:53:00,
2013-10-06 23:00:00,56.0,52.0,-100.00,SW,225,3.0,-999.0,89,-99.99,,,-99.99,0.000000,,2013-10-07 03:00:00,
2013-10-06 23:44:00,56.0,52.0,-100.00,SW,225,3.0,-999.0,89,-99.99,,,-99.99,0.000000,,2013-10-07 03:44:00,
2013-10-06 23:54:00,56.0,52.0,-100.00,SW,225,3.0,-999.0,89,-99.99,,,-99.99,0.000000,,2013-10-07 03:54:00,